STARK (65299 NORAD) Tracking and Keplerian Element Data

This shows tracking and keplerian element data for the satellite.

Feedback or suggestion? Click here.




ElementValue
Catalog65299
NameSTARK
Epoch Orbit1740
Epoch Day354.20863643
Epoch Year2025
RAAN74.7209
Inclination97.9655
Eccentricity0.001232
Argument of Perigee290.3508
Mean Anonmoly69.6377
Mean Motion14.75252633
Decay Rate1.076E-05
L11 65299U 25185C 25354.20863643 .00001076 00000+0 16641-3 0 9997
L22 65299 97.9655 74.7209 0012320 290.3508 69.6377 14.75252633 17406



Live tracking and technical data element details for STARK (NORAD 65299). STARK can be tracked NOW for your location showing map with azimuth and elevation plus other details from your city location.







IsCatalogInMostPopularTable: catalog: 65299, numindb: 5
Update: records affected: 1



GetName: 65299 STARK

Hit Count: updated at: Tue, 21 Apr 2026 20:09:24 GMT